When you browse on this site, cookies collect data to enhance your experience and personalize the content and advertising you see.
Visit our Privacy Policy to learn more. By continuing to use the site, you agree to this use of cookies and data.
  • In Germany
  • List of Countries
  • For 7 days
  • Water Temperature
  • Weather Map
  • Weather Widgets
  • user-avatar
    Login

    Hourly Weather Kaprun

    Today, 20 August, Tuesday

    Time Temperature Precipitation Wind Pressure Humidity
    00:00 +11°C° 0.4 mm 1 mps 602 mmHg 98%
    01:00 +11°C° 0.4 mm 1 mps 602 mmHg 98%
    02:00 +11°C° 0.2 mm 1 mps 602 mmHg 97%
    03:00 +11°C° 0.2 mm 1 mps 601 mmHg 97%
    04:00 +10°C° 0.2 mm 1 mps 601 mmHg 97%
    05:00 +11°C° 0.1 mm 1 mps 602 mmHg 96%
    06:00 +11°C° 0.1 mm 1 mps 602 mmHg 96%
    07:00 +11°C° 0.1 mm 1 mps 602 mmHg 96%
    08:00 +12°C° 0.2 mm 1 mps 602 mmHg 92%
    09:00 +14°C° 0.2 mm 2 mps 603 mmHg 89%
    10:00 +15°C° 0.2 mm 2 mps 603 mmHg 86%
    11:00 +15°C° 0.8 mm 2 mps 603 mmHg 85%
    12:00 +15°C° 0.8 mm 2 mps 603 mmHg 85%
    13:00 +15°C° 0.8 mm 2 mps 603 mmHg 84%
    14:00 +15°C° 0.6 mm 2 mps 603 mmHg 84%
    15:00 +15°C° 0.6 mm 2 mps 603 mmHg 85%
    16:00 +15°C° 0.6 mm 2 mps 603 mmHg 85%
    17:00 +13°C° 0.5 mm 2 mps 602 mmHg 89%
    18:00 +12°C° 0.5 mm 2 mps 602 mmHg 93%
    19:00 +10°C° 0.5 mm 2 mps 602 mmHg 97%
    20:00 +9°C° 0.5 mm 2 mps 602 mmHg 97%
    21:00 +9°C° 0.5 mm 1 mps 602 mmHg 98%
    22:00 +8°C° 0.5 mm 1 mps 602 mmHg 98%
    23:00 +7°C° 0.1 mm 2 mps 602 mmHg 98%

    Tomorrow, 21 August, Wednesday

    Time Temperature Precipitation Wind Pressure Humidity
    00:00 +7°C° 0.1 mm 2 mps 602 mmHg 98%
    01:00 +7°C° 0.1 mm 2 mps 602 mmHg 98%
    02:00 +6°C° 0.3 mm 2 mps 602 mmHg 98%
    03:00 +6°C° 0.3 mm 2 mps 602 mmHg 98%
    04:00 +6°C° 0.3 mm 2 mps 602 mmHg 98%
    05:00 +5°C° 0.2 mm 2 mps 602 mmHg 98%
    06:00 +5°C° 0.2 mm 2 mps 602 mmHg 98%
    07:00 +5°C° 0.2 mm 2 mps 602 mmHg 97%
    08:00 +7°C° 0 mm 1 mps 603 mmHg 95%
    09:00 +8°C° 0 mm 1 mps 603 mmHg 92%
    10:00 +9°C° 0 mm 1 mps 604 mmHg 89%
    11:00 +10°C° 0.1 mm 1 mps 604 mmHg 85%
    12:00 +11°C° 0.1 mm 1 mps 604 mmHg 82%
    13:00 +12°C° 0.1 mm 2 mps 604 mmHg 79%
    14:00 +13°C° 0.3 mm 2 mps 604 mmHg 78%
    15:00 +13°C° 0.3 mm 1 mps 604 mmHg 77%
    16:00 +13°C° 0.3 mm 1 mps 604 mmHg 76%
    17:00 +12°C° 0.2 mm 1 mps 604 mmHg 82%
    18:00 +11°C° 0.2 mm 1 mps 603 mmHg 88%
    19:00 +10°C° 0.2 mm 1 mps 603 mmHg 94%
    20:00 +9°C° 0.1 mm 1 mps 603 mmHg 94%
    21:00 +9°C° 0.1 mm 1 mps 603 mmHg 95%
    22:00 +8°C° 0.1 mm 1 mps 603 mmHg 95%
    23:00 +8°C° 0 mm 1 mps 602 mmHg 95%

    Day after tomorrow, 22 August, Thursday

    Time Temperature Precipitation Wind Pressure Humidity
    00:00 +8°C° 0 mm 1 mps 602 mmHg 94%
    01:00 +8°C° 0 mm 1 mps 602 mmHg 93%
    02:00 +7°C° 0 mm 1 mps 602 mmHg 93%
    03:00 +6°C° 0 mm 0 mps 602 mmHg 92%
    04:00 +6°C° 0 mm 0 mps 601 mmHg 92%
    05:00 +7°C° 0 mm 0 mps 602 mmHg 88%
    06:00 +9°C° 0 mm 0 mps 603 mmHg 85%
    07:00 +10°C° 0 mm 0 mps 604 mmHg 81%
    08:00 +12°C° 0 mm 0 mps 604 mmHg 74%
    09:00 +15°C° 0 mm 1 mps 605 mmHg 67%
    10:00 +18°C° 0 mm 1 mps 606 mmHg 60%
    11:00 +18°C° 0.4 mm 1 mps 606 mmHg 61%
    12:00 +18°C° 0.4 mm 1 mps 606 mmHg 63%
    13:00 +18°C° 0.4 mm 1 mps 606 mmHg 64%
    14:00 +18°C° 0.9 mm 1 mps 605 mmHg 68%
    15:00 +16°C° 0.9 mm 1 mps 605 mmHg 72%
    16:00 +16°C° 0.9 mm 1 mps 605 mmHg 76%
    17:00 +14°C° 0.6 mm 1 mps 604 mmHg 82%
    18:00 +13°C° 0.6 mm 1 mps 604 mmHg 88%
    19:00 +11°C° 0.6 mm 1 mps 603 mmHg 94%
    20:00 +11°C° 0.1 mm 1 mps 603 mmHg 94%
    21:00 +9°C° 0.1 mm 0 mps 604 mmHg 94%
    22:00 +8°C° 0.1 mm 0 mps 604 mmHg 94%
    23:00 +8°C° 0 mm 0 mps 603 mmHg 94%

    23 August, Friday

    Time Temperature Precipitation Wind Pressure Humidity
    00:00 +7°C° 0 mm 0 mps 603 mmHg 93%
    01:00 +7°C° 0 mm 0 mps 603 mmHg 93%
    02:00 +7°C° 0 mm 0 mps 603 mmHg 93%
    03:00 +7°C° 0 mm 0 mps 602 mmHg 92%
    04:00 +7°C° 0 mm 0 mps 602 mmHg 91%
    05:00 +8°C° 0 mm 0 mps 603 mmHg 89%
    06:00 +9°C° 0 mm 0 mps 604 mmHg 87%
    07:00 +10°C° 0 mm 0 mps 604 mmHg 84%
    08:00 +13°C° 0 mm 1 mps 605 mmHg 77%
    09:00 +15°C° 0 mm 1 mps 606 mmHg 69%
    10:00 +18°C° 0 mm 1 mps 606 mmHg 62%
    11:00 +18°C° 0.4 mm 1 mps 606 mmHg 62%
    12:00 +18°C° 0.4 mm 1 mps 606 mmHg 63%
    13:00 +18°C° 0.4 mm 2 mps 606 mmHg 63%
    14:00 +18°C° 0.7 mm 1 mps 606 mmHg 67%
    15:00 +18°C° 0.7 mm 1 mps 605 mmHg 72%
    16:00 +16°C° 0.7 mm 1 mps 605 mmHg 76%
    17:00 +15°C° 0.5 mm 1 mps 604 mmHg 80%
    18:00 +13°C° 0.5 mm 1 mps 604 mmHg 84%
    19:00 +12°C° 0.5 mm 1 mps 603 mmHg 89%
    20:00 +11°C° 0 mm 1 mps 603 mmHg 88%
    21:00 +11°C° 0 mm 1 mps 603 mmHg 87%
    22:00 +9°C° 0 mm 2 mps 603 mmHg 87%
    23:00 +9°C° 0 mm 2 mps 602 mmHg 86%

    24 August, Saturday

    Time Temperature Precipitation Wind Pressure Humidity
    00:00 +8°C° 0 mm 2 mps 602 mmHg 86%
    01:00 +8°C° 0 mm 2 mps 602 mmHg 86%
    02:00 +8°C° 0 mm 2 mps 602 mmHg 85%
    03:00 +8°C° 0 mm 2 mps 602 mmHg 83%
    04:00 +8°C° 0 mm 2 mps 601 mmHg 82%
    05:00 +9°C° 0 mm 2 mps 602 mmHg 80%
    06:00 +10°C° 0 mm 2 mps 602 mmHg 78%
    07:00 +12°C° 0 mm 2 mps 603 mmHg 76%
    08:00 +14°C° 0 mm 1 mps 604 mmHg 68%
    09:00 +16°C° 0 mm 1 mps 605 mmHg 61%
    10:00 +19°C° 0 mm 1 mps 605 mmHg 53%
    11:00 +20°C° 0.4 mm 1 mps 605 mmHg 52%
    12:00 +20°C° 0.4 mm 1 mps 605 mmHg 51%
    13:00 +21°C° 0.4 mm 1 mps 605 mmHg 50%
    14:00 +19°C° 0.8 mm 1 mps 605 mmHg 57%
    15:00 +18°C° 0.8 mm 1 mps 604 mmHg 64%
    16:00 +16°C° 0.8 mm 1 mps 603 mmHg 71%
    17:00 +15°C° 0.3 mm 1 mps 603 mmHg 75%
    18:00 +14°C° 0.3 mm 1 mps 602 mmHg 79%
    19:00 +12°C° 0.3 mm 1 mps 601 mmHg 83%
    20:00 +12°C° 0.1 mm 1 mps 601 mmHg 83%
    21:00 +11°C° 0.1 mm 1 mps 601 mmHg 82%
    22:00 +10°C° 0.1 mm 1 mps 601 mmHg 82%
    23:00 +10°C° 0 mm 1 mps 601 mmHg 81%

    25 August, Sunday

    Time Temperature Precipitation Wind Pressure Humidity
    00:00 +10°C° 0 mm 1 mps 601 mmHg 81%
    01:00 +9°C° 0 mm 1 mps 601 mmHg 81%
    02:00 +9°C° 0 mm 1 mps 600 mmHg 80%
    03:00 +9°C° 0 mm 1 mps 600 mmHg 80%
    04:00 +8°C° 0 mm 1 mps 600 mmHg 80%
    05:00 +10°C° 0 mm 1 mps 601 mmHg 78%
    06:00 +11°C° 0 mm 1 mps 601 mmHg 76%
    07:00 +13°C° 0 mm 1 mps 602 mmHg 73%
    08:00 +15°C° 0 mm 1 mps 603 mmHg 66%
    09:00 +18°C° 0 mm 1 mps 604 mmHg 59%
    10:00 +20°C° 0 mm 1 mps 604 mmHg 52%
    11:00 +20°C° 0.6 mm 1 mps 604 mmHg 52%
    12:00 +20°C° 0.6 mm 1 mps 604 mmHg 52%
    13:00 +21°C° 0.6 mm 1 mps 604 mmHg 53%
    14:00 +19°C° 1.7 mm 1 mps 603 mmHg 61%
    15:00 +18°C° 1.7 mm 1 mps 603 mmHg 69%
    16:00 +16°C° 1.7 mm 1 mps 602 mmHg 77%
    17:00 +15°C° 1.1 mm 1 mps 602 mmHg 81%
    18:00 +13°C° 1.1 mm 1 mps 601 mmHg 85%
    19:00 +12°C° 1.1 mm 1 mps 601 mmHg 89%
    20:00 +12°C° 0.3 mm 1 mps 601 mmHg 89%
    21:00 +12°C° 0.3 mm 1 mps 601 mmHg 89%
    22:00 +11°C° 0.3 mm 1 mps 601 mmHg 89%
    23:00 +11°C° 0 mm 1 mps 601 mmHg 88%
    Show more